                ,  1.160,  1.308,  1.456,  1.604,  1.751,  1.899,  2.047,  2.194,  2.342,  2.490,  2.638,  2.785,  2.933,  3.081,  3.229,  3.376,  3.524,  3.672,  3.819,  3.967,  4.115,  4.263,  4.410,  4.558,  4.706,  4.853,  5.001,  5.149,  5.297,  5.444
2005/09/17 00:00,  999.0,    7.6,    6.8,    8.9,  999.0,  999.0,  999.0,  999.0,  999.0,  999.0,  999.0,  999.0,    1.4,    1.3,  999.0,  999.0,   -0.8,  999.0,  999.0,  999.0,  999.0,  999.0,  999.0,  999.0,  999.0,  999.0,  999.0,  999.0,  999.0,  999.0
2005/09/17 00:10,  999.0,    9.5,    5.6,    7.2,  999.0,  999.0,  999.0,  999.0,  999.0,  999.0,  999.0,    1.0,  999.0,    1.0,  999.0,   -0.4,  999.0,    0.3,   -0.4,    0.0,  999.0,    1.8,  999.0,  999.0,  999.0,  999.0,  999.0,  999.0,  999.0,   -1.0
2005/09/17 00:20,  999.0,  999.0,    6.9,    9.2,    7.9,  999.0,  999.0,  999.0,  999.0,  999.0,  999.0,  999.0,  999.0,   -0.5,  999.0,  999.0,  999.0,   -0.3,  999.0,    1.0,  999.0,  999.0,  999.0,  999.0,  999.0,  999.0,  999.0,  999.0,  999.0,  999.0
2005/09/17 00:30,    6.3,    7.5,    9.3,  999.0,  999.0,  999.0,  999.0,  999.0,  999.0,  999.0,  999.0,  999.0,  999.0,  999.0,    2.2,  999.0,  999.0,  999.0,   -0.3,  999.0,  999.0,  999.0,    0.8,  999.0,  999.0,  999.0,  999.0,  999.0,  999.0,  999.0
2005/09/17 00:40,    6.1,    7.2,    8.3,    8.9,    8.6,  999.0,    8.0,    8.8,  999.0,    8.4,  999.0,  999.0,  999.0,  999.0,  999.0,  999.0,    0.4,    1.9,  999.0,  999.0,  999.0,  999.0,    0.3,  999.0,  999.0,  999.0,  999.0,  999.0,  999.0,  999.0
2005/09/17 00:50,  999.0,    8.0,  999.0,  999.0,    9.4,    6.4,    7.4,    7.1,    7.8,    7.2,  999.0,  999.0,    1.1,  999.0,  999.0,   -0.7,  999.0,    0.0,   -0.3,  999.0,  999.0,  999.0,  999.0,    0.5,  999.0,  999.0,    6.0,    4.0,    2.7,    0.6
2005/09/17 01:00,  999.0,    8.7,  999.0,    6.0,  999.0,    8.0,  999.0,   10.4,    7.2,  999.0,  999.0,    2.4,  999.0,  999.0,   -1.0,   -0.4,   -0.4,  999.0,    0.8,  999.0,   -0.1,   -0.3,  999.0,  999.0,  999.0,    4.1,    4.2,    4.0,    3.3,    2.4
2005/09/17 01:10,    7.7,    8.9,  999.0,  999.0,    8.1,  999.0,  999.0,  999.0,  999.0,  999.0,  999.0,  999.0,   -1.1,    0.3,    0.6,  999.0,    0.0,  999.0,    1.0,  999.0,  999.0,  999.0,    3.7,    1.9,    3.7,    4.9,    4.7,    4.5,    3.9,    3.6
2005/09/17 01:20,    7.9,   10.1,   10.3,   13.6,    9.4,  999.0,  999.0,  999.0,    8.6,    7.6,    6.2,    5.7,    5.2,    5.2,    4.8,    4.7,    4.3,    3.5,    2.6,    3.1,    3.7,    4.0,    6.0,    6.9,    6.0,    6.0,    5.4,    4.9,    4.1,    2.9
2005/09/17 01:30,  999.0,  999.0,  999.0,   10.7,  999.0,  999.0,  999.0,   10.7,    9.5,    8.0,    6.3,    5.4,    6.6,    6.8,    6.5,    6.4,    5.9,    3.6,    3.5,    3.7,    4.0,    4.5,    5.5,    7.1,    6.4,    7.2,    5.8,    4.1,  999.0,    1.5
2005/09/17 01:40,   16.5,   11.6,   11.1,   12.4,   11.1,   10.7,   10.8,   11.1,    9.9,    8.6,    6.7,    5.3,    6.4,    6.2,    6.5,    7.0,    7.0,    4.3,    3.3,  999.0,    4.8,    5.7,    4.1,  999.0,  999.0,  999.0,  999.0,  999.0,  999.0,  999.0
2005/09/17 01:50,    6.7,  999.0,  999.0,   12.3,  999.0,   12.3,   10.8,   11.5,   10.7,    8.6,    7.7,    7.1,    8.4,    7.6,    7.9,    7.0,    6.7,    7.5,    3.9,    2.3,    6.9,    6.9,   -0.1,    1.3,  999.0,  999.0,  999.0,  999.0,  999.0,  999.0
2005/09/17 02:00,    7.2,    7.9,    9.8,    9.9,  999.0,  999.0,  999.0,  999.0,  999.0,   12.0,  999.0,  999.0,  999.0,  999.0,  999.0,  999.0,  999.0,    5.3,  999.0,  999.0,  999.0,  999.0,   -0.6,   -0.4,  999.0,  999.0,  999.0,  999.0,  999.0,  999.0
2005/09/17 02:10,    8.4,   10.4,   10.1,    9.4,  999.0,   11.7,  999.0,   11.6,   10.7,   11.3,   10.1,    7.3,  999.0,    0.0,    0.7,  999.0,  999.0,    0.7,    1.2,  999.0,  999.0,  999.0,  999.0,  999.0,  999.0,  999.0,  999.0,  999.0,  999.0,  999.0
2005/09/17 02:20,  999.0,    8.4,    9.0,    9.6,  999.0,  999.0,  999.0,  999.0,  999.0,  999.0,    9.9,  999.0,    2.3,  999.0,    0.3,   -0.5,  999.0,    0.7,  999.0,  999.0,  999.0,  999.0,   -0.5,    0.6,  999.0,  999.0,  999.0,    4.0,    4.3,    2.0
2005/09/17 02:30,  999.0,  999.0,  999.0,   10.5,   10.0,   10.2,  999.0,   11.5,   10.7,   12.0,  999.0,  999.0,    0.9,  999.0,    0.2,   -0.4,    1.0,    1.0,  999.0,  999.0,  999.0,  999.0,   -0.9,  999.0,    4.9,    5.5,    4.7,    3.7,    2.5,    2.2
2005/09/17 02:40,    9.0,    9.2,  999.0,    9.1,    9.7,   10.7,   11.2,   10.6,   10.5,   11.4,   11.5,   11.3,  999.0,    1.1,   -1.9,  999.0,  999.0,    6.0,    7.6,    5.4,    4.0,    6.0,    7.0,    6.8,    4.7,    4.1,    4.5,    3.2,    2.8,    1.7
2005/09/17 02:50,    7.0,    7.5,  999.0,    8.9,    9.4,   11.4,   12.1,   10.9,   11.1,   11.4,   11.3,   10.4,  999.0,  999.0,  999.0,  999.0,    3.8,    4.7,    5.6,    6.6,    5.6,    5.4,    6.3,    5.9,    4.7,    4.3,    4.3,    3.9,    3.7,    2.4
2005/09/17 03:00,    5.9,  999.0,    9.5,    9.9,  999.0,   12.7,   11.6,   11.2,   11.0,   10.8,   11.5,    9.3,  999.0,  999.0,  999.0,    6.0,    4.1,    3.2,    2.6,    3.0,    3.2,    2.7,    3.9,    5.4,    3.8,    4.5,    4.1,    3.8,    4.0,    2.6
2005/09/17 03:10,  999.0,   10.0,   11.3,   10.9,   11.7,   12.1,   10.7,   10.6,  999.0,    9.9,  999.0,   -3.7,  999.0,  999.0,    5.1,    5.4,    5.5,    4.8,    4.0,    3.3,    3.6,    3.6,    4.6,    5.6,    4.0,    3.6,    4.2,    4.3,    4.2,    2.9
2005/09/17 03:20,    6.3,   13.3,  999.0,    9.9,  999.0,   12.4,   10.8,   11.1,  999.0,  999.0,  999.0,  999.0,    9.9,    8.9,    8.2,    6.5,    5.4,    4.4,    3.3,    3.2,  999.0,    2.8,    4.2,    5.6,    4.1,    3.4,    3.5,    3.2,    2.7,    1.3
2005/09/17 03:30,    5.5,  999.0,  999.0,  999.0,  999.0,  999.0,  999.0,  999.0,  999.0,  999.0,   11.2,   14.1,   11.3,    9.2,   10.6,    8.1,    5.4,    5.6,    3.1,    1.5,  999.0,    0.6,    2.3,    3.0,    3.2,    3.1,    3.3,    3.4,    2.5,    1.5
2005/09/17 03:40,    6.9,  999.0,    8.2,   10.7,  999.0,  999.0,  999.0,  999.0,   12.6,   12.7,   12.3,   12.3,   11.6,   10.6,   11.0,    8.8,    5.9,    4.3,    2.3,    1.1,    0.6,    1.1,    2.7,    3.6,    3.2,    3.2,    2.3,    2.7,    2.0,    1.3
2005/09/17 03:50,  999.0,  999.0,   17.7,   21.0,  999.0,  999.0,  999.0,  999.0,  999.0,  999.0,  999.0,  999.0,  999.0,  999.0,  999.0,  999.0,  999.0,  999.0,  999.0,  999.0,  999.0,  999.0,    1.0,    0.1,  999.0,  999.0,    1.5,    1.4,    1.0,    2.5
2005/09/17 04:00,  999.0,  999.0,  999.0,  999.0,  999.0,  999.0,   14.2,   13.8,  999.0,  999.0,  999.0,  999.0,  999.0,    1.4,   -0.1,    1.9,    1.1,  999.0,  999.0,  999.0,  999.0,  999.0,    0.6,   -0.3,   -1.2,  999.0,  999.0,  999.0,    2.1,    2.2
2005/09/17 04:10,    4.9,    7.6,    7.9,  999.0,   11.2,   12.2,   12.9,   13.2,   12.4,   12.0,  999.0,  999.0,  999.0,   -0.7,    0.9,  999.0,    1.0,   -1.1,  999.0,   -1.0,  999.0,   -0.1,    0.2,    1.1,  999.0,  999.0,   -1.2,    0.5,    0.9,    1.4
2005/09/17 04:20,    7.0,    7.2,    8.7,    9.1,    9.6,  999.0,   13.3,   11.8,   12.8,  999.0,   11.7,    9.6,    1.4,   -0.0,   -0.1,    0.1,   -0.1,    0.9,   -0.3,  999.0,  999.0,    0.9,    0.3,    0.3,  999.0,    1.0,    1.3,    1.2,    2.1,    2.6
2005/09/17 04:30,    8.1,    8.0,    9.4,   10.4,   14.0,   12.9,   12.9,   12.4,   11.8,  999.0,   11.1,   10.3,  999.0,  999.0,   -0.7,    0.0,   -0.3,  999.0,  999.0,    1.0,  999.0,    1.1,    0.5,   -0.9,  999.0,  999.0,   -1.1,    0.4,    1.2,    2.0
2005/09/17 04:40,    5.5,    7.4,    8.9,   10.5,   12.1,   12.2,   12.7,   12.3,   12.3,   12.6,   11.9,  999.0,    1.7,   -0.5,    1.3,    0.3,  999.0,   -0.1,  999.0,  999.0,    0.8,   -0.6,  999.0,   -0.5,  999.0,    1.2,    1.6,    1.5,    3.0,    3.7
2005/09/17 04:50,    7.7,    8.6,    9.2,   10.6,   14.4,  999.0,  999.0,   13.1,  999.0,  999.0,  999.0,  999.0,    0.1,    1.1,    0.2,  999.0,   -0.5,    1.1,    0.6,  999.0,    0.5,    0.9,   -0.2,    0.3,  999.0,  999.0,    1.5,    0.7,    0.2,    2.0
2005/09/17 05:00,    6.6,    8.0,    8.9,   10.3,   11.8,  999.0,  999.0,   12.9,  999.0,  999.0,  999.0,  999.0,   -0.1,   -0.0,   -0.0,  999.0,   -0.5,    1.0,  999.0,  999.0,  999.0,  999.0,    0.1,   -0.2,  999.0,  999.0,  999.0,    0.8,    0.9,    1.5
2005/09/17 05:10,    6.2,    8.1,    9.4,   10.6,   11.3,  999.0,  999.0,  999.0,  999.0,  999.0,  999.0,  999.0,    0.2,  999.0,    0.8,  999.0,  999.0,  999.0,    0.7,  999.0,  999.0,    0.6,  999.0,  999.0,  999.0,  999.0,  999.0,  999.0,  999.0,  999.0
2005/09/17 05:20,    5.3,    8.1,    9.0,   11.0,  999.0,  999.0,  999.0,  999.0,  999.0,   12.8,  999.0,  999.0,  999.0,   -0.3,   -0.5,  999.0,  999.0,  999.0,  999.0,  999.0,  999.0,  999.0,    0.6,    0.3,  999.0,  999.0,  999.0,  999.0,  999.0,  999.0
2005/09/17 05:30,    5.5,    7.9,    8.9,    9.5,  999.0,  999.0,  999.0,   13.1,   12.9,  999.0,  999.0,  999.0,  999.0,   -0.1,   -0.5,   -0.0,  999.0,    0.9,  999.0,  999.0,  999.0,  999.0,  999.0,  999.0,  999.0,  999.0,  999.0,  999.0,  999.0,  999.0
2005/09/17 05:40,    6.4,    7.5,    8.9,    8.2,  999.0,   10.7,  999.0,   13.1,   11.7,  999.0,  999.0,  999.0,    0.0,    0.4,    0.2,  999.0,  999.0,    0.1,    1.4,  999.0,  999.0,  999.0,  999.0,    0.6,  999.0,  999.0,  999.0,  999.0,   -0.5,    1.0
2005/09/17 05:50,    3.3,  999.0,    7.4,    8.1,  999.0,   12.0,  999.0,   11.7,   12.0,   12.6,  999.0,  999.0,    3.0,    2.3,   -0.1,  999.0,  999.0,  999.0,    0.5,  999.0,  999.0,  999.0,  999.0,   -0.2,  999.0,  999.0,  999.0,  999.0,  999.0,  999.0
2005/09/17 06:00,    3.7,    4.5,    6.0,    8.9,   11.4,  999.0,   11.1,   11.6,   12.0,   12.5,  999.0,  999.0,  999.0,  999.0,    0.1,  999.0,  999.0,  999.0,  999.0,  999.0,    0.4,  999.0,  999.0,  999.0,  999.0,  999.0,  999.0,  999.0,  999.0,  999.0
2005/09/17 06:10,    2.7,    4.5,    6.6,    8.3,    9.3,   10.2,   11.7,   10.2,  999.0,   12.7,  999.0,  999.0,  999.0,  999.0,  999.0,    1.2,  999.0,  999.0,  999.0,  999.0,    0.8,  999.0,  999.0,    0.2,  999.0,  999.0,  999.0,  999.0,  999.0,  999.0
2005/09/17 06:20,    4.6,    5.0,    6.8,    8.5,  999.0,  999.0,   13.0,   14.4,   14.6,  999.0,  999.0,  999.0,  999.0,  999.0,    0.2,  999.0,  999.0,  999.0,  999.0,  999.0,  999.0,  999.0,  999.0,  999.0,  999.0,  999.0,  999.0,  999.0,  999.0,  999.0
2005/09/17 06:30,    3.6,  999.0,    5.7,    9.9,  999.0,  999.0,   10.6,  999.0,   12.6,  999.0,   10.9,  999.0,  999.0,  999.0,    0.6,  999.0,  999.0,  999.0,  999.0,  999.0,  999.0,  999.0,    0.5,  999.0,  999.0,  999.0,  999.0,  999.0,  999.0,  999.0
2005/09/17 06:40,    4.5,    2.6,    6.9,    9.4,  999.0,  999.0,  999.0,  999.0,  999.0,  999.0,   11.8,  999.0,  999.0,    0.4,   -0.5,  999.0,  999.0,    0.3,  999.0,  999.0,  999.0,  999.0,   -2.4,  999.0,  999.0,  999.0,  999.0,  999.0,  999.0,  999.0
2005/09/17 06:50,    5.4,    2.9,  999.0,    9.3,  999.0,  999.0,   12.2,  999.0,   13.8,  999.0,  999.0,   10.5,  999.0,  999.0,    0.2,  999.0,  999.0,    0.6,    0.0,  999.0,    0.1,  999.0,  999.0,  999.0,  999.0,  999.0,  999.0,  999.0,  999.0,  999.0
2005/09/17 07:00,  999.0,  999.0,  999.0,  999.0,  999.0,   10.7,  999.0,  999.0,  999.0,  999.0,  999.0,   10.3,  999.0,  999.0,    0.4,    3.1,  999.0,  999.0,   -0.4,  999.0,  999.0,  999.0,  999.0,  999.0,  999.0,  999.0,  999.0,  999.0,  999.0,  999.0
2005/09/17 07:10,   11.7,  999.0,  999.0,   11.0,   11.0,  999.0,  999.0,  999.0,   13.0,  999.0,  999.0,  999.0,    0.4,   -0.5,   -1.8,  999.0,    0.1,  999.0,    0.1,   -0.4,  999.0,  999.0,  999.0,    1.2,   -0.1,  999.0,  999.0,  999.0,  999.0,  999.0
2005/09/17 07:20,  999.0,  999.0,    6.4,  999.0,  999.0,   11.2,  999.0,  999.0,  999.0,  999.0,  999.0,  999.0,    5.7,  999.0,  999.0,    0.7,    1.0,  999.0,   -0.6,   -0.4,  999.0,   -0.4,  999.0,   -0.5,  999.0,  999.0,  999.0,  999.0,  999.0,  999.0
2005/09/17 07:30,  999.0,  999.0,  999.0,  999.0,   10.3,  999.0,  999.0,  999.0,  999.0,  999.0,  999.0,  999.0,    7.4,    0.1,   -1.0,  999.0,   -1.0,  999.0,  999.0,    0.3,  999.0,    0.8,    0.5,   -1.5,  999.0,  999.0,  999.0,  999.0,  999.0,  999.0
2005/09/17 07:40,    5.1,  999.0,  999.0,  999.0,   10.1,  999.0,  999.0,  999.0,  999.0,  999.0,  999.0,  999.0,  999.0,    0.3,   -0.2,  999.0,   -0.8,  999.0,    2.3,    0.1,  999.0,  999.0,    0.9,    0.2,  999.0,  999.0,  999.0,  999.0,  999.0,  999.0
2005/09/17 07:50,  999.0,    4.4,    8.4,    9.2,  999.0,  999.0,   12.1,  999.0,  999.0,  999.0,   11.6,  999.0,   -0.4,  999.0,   -0.5,  999.0,   -0.5,   -0.2,  999.0,  999.0,  999.0,  999.0,  999.0,    0.4,  999.0,  999.0,  999.0,  999.0,  999.0,  999.0
2005/09/17 08:00,  999.0,  999.0,  999.0,    7.8,  999.0,  999.0,  999.0,  999.0,  999.0,  999.0,  999.0,   11.5,   -0.2,  999.0,  999.0,  999.0,    0.7,  999.0,  999.0,  999.0,  999.0,  999.0,  999.0,    0.1,    0.2,  999.0,  999.0,  999.0,  999.0,  999.0
2005/09/17 08:10,    6.5,  999.0,    7.2,    9.9,    9.8,   11.2,   12.6,  999.0,  999.0,  999.0,  999.0,    6.4,  999.0,    1.0,    0.1,   -0.6,  999.0,    0.0,    0.2,  999.0,  999.0,  999.0,    0.2,  999.0,  999.0,  999.0,  999.0,  999.0,  999.0,    0.4
2005/09/17 08:20,    6.1,    8.5,    9.5,   10.3,  999.0,   11.6,   12.1,   13.3,  999.0,  999.0,  999.0,   14.4,    0.5,    3.2,  999.0,  999.0,    0.5,   -0.9,  999.0,  999.0,  999.0,  999.0,  999.0,    1.4,  999.0,  999.0,  999.0,  999.0,  999.0,  999.0
2005/09/17 08:30,    6.9,  999.0,  999.0,  999.0,  999.0,  999.0,   12.7,   13.1,   14.2,  999.0,  999.0,  999.0,  999.0,  999.0,  999.0,  999.0,  999.0,  999.0,  999.0,  999.0,  999.0,  999.0,   -0.8,   -0.1,  999.0,  999.0,  999.0,  999.0,  999.0,  999.0
2005/09/17 08:40,  999.0,    7.0,    7.2,  999.0,    9.8,  999.0,  999.0,   11.7,   13.7,  999.0,  999.0,  999.0,  999.0,  999.0,  999.0,  999.0,  999.0,  999.0,  999.0,  999.0,  999.0,  999.0,    0.1,    1.2,  999.0,  999.0,  999.0,  999.0,  999.0,  999.0
2005/09/17 08:50,    4.8,    5.6,    6.7,    8.9,  999.0,  999.0,   11.3,   10.6,  999.0,  999.0,  999.0,  999.0,   -1.0,    1.7,  999.0,    0.5,  999.0,   -0.6,    0.7,  999.0,    0.2,  999.0,  999.0,    0.6,  999.0,  999.0,  999.0,  999.0,  999.0,  999.0
2005/09/17 09:00,  999.0,    7.0,    7.2,    9.8,    9.9,   11.8,   11.8,  999.0,  999.0,  999.0,  999.0,  999.0,  999.0,   -0.1,  999.0,   -0.9,    0.3,    0.0,    0.8,    0.8,  999.0,  999.0,    1.4,  999.0,  999.0,  999.0,  999.0,  999.0,  999.0,  999.0
2005/09/17 09:10,    6.0,    7.5,    8.7,    8.9,    9.5,   11.0,   12.0,  999.0,  999.0,  999.0,  999.0,  999.0,   -0.0,    1.9,    0.2,   -0.3,    0.3,    0.2,   -1.1,  999.0,  999.0,  999.0,  999.0,  999.0,  999.0,  999.0,  999.0,  999.0,  999.0,    0.3
2005/09/17 09:20,    3.6,    6.9,    7.6,    9.3,   10.8,   11.8,  999.0,  999.0,  999.0,  999.0,  999.0,  999.0,  999.0,  999.0,    0.2,  999.0,  999.0,    0.1,    0.1,  999.0,  999.0,  999.0,    0.2,    1.2,  999.0,  999.0,  999.0,  999.0,  999.0,  999.0
2005/09/17 09:30,  999.0,    5.9,    6.6,    8.1,   10.0,  999.0,  999.0,   13.0,   13.5,  999.0,  999.0,  999.0,  999.0,    1.7,    0.4,  999.0,  999.0,    0.2,  999.0,  999.0,  999.0,  999.0,   -0.5,  999.0,  999.0,  999.0,  999.0,  999.0,  999.0,  999.0
2005/09/17 09:40,    1.7,    4.5,    6.9,    8.6,  999.0,  999.0,   11.9,   12.3,   12.9,  999.0,   13.8,   10.5,  999.0,  999.0,  999.0,  999.0,   -0.0,  999.0,  999.0,  999.0,  999.0,  999.0,    0.0,  999.0,  999.0,  999.0,  999.0,  999.0,  999.0,  999.0
2005/09/17 09:50,    2.6,    3.0,    6.4,    8.1,    9.8,  999.0,  999.0,   12.3,   12.5,   12.5,   13.3,  999.0,    2.0,    2.8,   -4.2,    0.6,  999.0,  999.0,    0.3,  999.0,  999.0,  999.0,  999.0,    0.9,  999.0,  999.0,  999.0,  999.0,  999.0,  999.0
2005/09/17 10:00,    2.3,    3.3,    6.3,    8.1,    9.1,    9.8,   11.2,  999.0,   12.9,   13.0,  999.0,  999.0,  999.0,    0.7,  999.0,    0.8,  999.0,  999.0,   -0.4,    0.6,  999.0,  999.0,    0.2,  999.0,  999.0,  999.0,  999.0,  999.0,  999.0,   -0.1
2005/09/17 10:10,    3.2,    3.7,    6.0,    8.5,    9.7,   10.2,   11.5,  999.0,  999.0,  999.0,  999.0,  999.0,   -0.6,    1.5,  999.0,    0.5,    0.8,   -0.8,   -0.0,    0.8,  999.0,  999.0,  999.0,   -0.6,  999.0,  999.0,  999.0,  999.0,  999.0,   -0.2
2005/09/17 10:20,    3.5,    4.2,    7.0,    6.0,   10.9,   11.6,   11.5,  999.0,  999.0,  999.0,  999.0,  999.0,    0.5,    0.6,    0.1,    1.9,    0.7,    1.3,    0.5,    0.5,  999.0,   -0.2,    0.1,  999.0,  999.0,  999.0,  999.0,  999.0,    1.2,    0.0
2005/09/17 10:30,    3.4,    3.9,    6.3,    8.5,    9.7,   10.1,   12.6,  999.0,  999.0,  999.0,  999.0,  999.0,  999.0,    1.8,    1.3,  999.0,   -0.3,    0.6,    1.2,    0.7,  999.0,    0.4,  999.0,    0.4,    1.0,  999.0,  999.0,  999.0,   -0.1,  999.0
2005/09/17 10:40,    3.4,    4.6,    5.7,    8.3,    7.9,   10.5,   12.7,  999.0,  999.0,  999.0,  999.0,   -0.2,    0.5,    0.7,   -0.1,    0.2,  999.0,   -1.8,    0.1,  999.0,  999.0,   -0.3,    0.4,  999.0,  999.0,  999.0,  999.0,  999.0,    0.6,   -1.0
2005/09/17 10:50,    3.2,    5.5,    5.7,    7.7,    7.5,   10.1,   12.2,   14.8,  999.0,  999.0,  999.0,    0.7,    2.0,    3.3,    0.0,    0.1,    0.4,   -0.1,   -0.3,  999.0,  999.0,    0.3,    0.7,   -0.5,    0.2,  999.0,  999.0,  999.0,  999.0,  999.0
2005/09/17 11:00,    4.9,    5.3,    5.7,    6.4,    7.7,    8.5,   11.2,   14.8,  999.0,  999.0,  999.0,  999.0,    4.3,    7.0,    5.2,    0.4,    0.2,    2.7,    0.1,  999.0,  999.0,    0.2,   -0.2,    0.7,  999.0,  999.0,  999.0,  999.0,   -0.1,  999.0
2005/09/17 11:10,    4.3,    4.9,    6.0,    5.7,    8.3,    9.3,    9.9,   14.6,   10.9,  999.0,  999.0,   -0.7,    4.5,    8.8,    2.5,  999.0,    1.0,   -0.6,   -0.2,  999.0,   -0.7,   -0.6,  999.0,  999.0,  999.0,  999.0,  999.0,  999.0,    0.8,  999.0
2005/09/17 11:20,    4.8,    5.5,    6.0,    6.8,    6.6,    8.3,    9.5,    9.4,  999.0,  999.0,  999.0,    1.2,    1.0,    2.9,    1.1,  999.0,   -0.4,    0.8,   -0.5,    0.2,   -0.3,   -0.3,   -0.2,   -1.6,   -1.1,  999.0,  999.0,  999.0,  999.0,    0.2
2005/09/17 11:30,    5.6,    5.6,    6.4,    7.1,    9.3,    7.9,    6.8,    9.6,  999.0,  999.0,  999.0,   -0.4,    1.4,    5.7,    0.7,  999.0,    0.3,    0.5,   -0.7,   -0.2,  999.0,  999.0,  999.0,  999.0,  999.0,  999.0,  999.0,  999.0,  999.0,    0.6
2005/09/17 11:40,    5.3,    7.0,    5.5,    5.9,    7.0,    7.5,    9.1,  999.0,   10.8,  999.0,  999.0,  999.0,    2.8,    3.1,    0.7,  999.0,   -0.3,   -0.7,   -0.3,  999.0,   -0.8,    1.2,    0.0,    0.5,   -0.6,  999.0,  999.0,  999.0,   -0.5,   -0.6
2005/09/17 11:50,    7.6,    6.8,    3.3,    5.2,    6.0,    6.5,   10.5,   10.0,  999.0,  999.0,  999.0,    0.7,    0.9,    5.5,    1.1,   -0.7,   -0.9,    0.3,   -0.2,    0.2,   -0.1,   -0.2,   -0.7,   -0.4,  999.0,  999.0,  999.0,  999.0,   -0.6,    0.4
2005/09/17 12:00,    5.9,    5.6,    5.3,    4.3,    5.4,    9.0,    7.5,    6.9,  999.0,  999.0,  999.0,    0.0,    1.6,    3.5,    0.9,    0.2,  999.0,    1.1,  999.0,  999.0,  999.0,   -0.2,   -0.1,   -1.8,    0.7,  999.0,  999.0,  999.0,    0.1,    0.1
2005/09/17 12:10,    4.8,    5.6,  999.0,    6.3,    7.4,   11.7,    3.0,    5.3,  999.0,  999.0,  999.0,  999.0,    1.1,    0.4,    1.1,    0.2,    1.8,  999.0,    0.1,  999.0,    0.5,   -1.3,   -0.3,  999.0,   -0.7,  999.0,  999.0,  999.0,    1.0,    0.3
2005/09/17 12:20,    5.7,    4.0,    8.3,    5.5,    6.0,  999.0,    9.2,   10.0,    8.5,  999.0,  999.0,  999.0,    1.9,    1.9,    0.5,    0.3,    0.4,    0.1,    0.0,   -0.2,    1.0,    0.1,   -0.2,   -0.3,  999.0,  999.0,  999.0,  999.0,   -0.7,    0.7
2005/09/17 12:30,    5.7,    6.5,    6.9,    6.8,    7.9,    9.3,    7.0,    4.8,  999.0,  999.0,  999.0,    1.9,    0.8,    1.5,    0.9,    0.5,    0.2,  999.0,  999.0,    0.8,    0.7,  999.0,  999.0,   -0.1,  999.0,  999.0,  999.0,  999.0,    0.1,  999.0
2005/09/17 12:40,    5.9,    5.5,    4.8,    4.9,    5.5,    9.4,    9.0,   10.3,   12.4,   16.7,  999.0,  999.0,  999.0,    3.6,    1.3,  999.0,  999.0,    1.2,  999.0,    0.1,    0.2,    0.8,    0.7,    0.4,  999.0,  999.0,  999.0,  999.0,    0.8,    0.1
2005/09/17 12:50,    4.1,    5.4,    6.2,    6.0,    7.9,    7.7,    9.6,   10.1,   10.6,  999.0,  999.0,    0.2,   -0.4,    4.0,    1.7,    0.4,    1.8,    0.0,    0.8,   -0.1,   -0.2,   -0.4,   -0.4,   -0.1,    0.7,  999.0,  999.0,  999.0,  999.0,  999.0
2005/09/17 13:00,    5.7,   10.0,    8.3,    6.2,    7.6,    9.7,    7.7,   11.3,   11.9,   11.3,  999.0,    6.0,    0.8,    1.9,    1.1,   -2.5,   -1.3,  999.0,  999.0,  999.0,   -0.3,  999.0,  999.0,   -0.3,    0.4,  999.0,  999.0,  999.0,  999.0,  999.0
2005/09/17 13:10,    7.4,    7.5,    5.9,    6.6,    7.6,    8.3,    9.6,   11.9,    6.6,   13.4,   13.0,  999.0,    3.3,    5.6,    3.1,    0.0,   -0.2,    0.0,    0.9,    0.5,    1.1,    1.4,   -0.3,   -0.1,    0.2,  999.0,  999.0,  999.0,  999.0,  999.0
2005/09/17 13:20,    6.4,    6.9,    7.7,    8.6,    8.1,    8.1,    9.5,    9.8,   10.2,   11.2,    7.7,    9.4,    2.7,    2.4,    2.5,    0.5,    0.3,    0.3,    0.0,    0.3,   -0.4,    0.1,    0.5,    0.9,  999.0,  999.0,  999.0,  999.0,   -2.0,  999.0
2005/09/17 13:30,    7.3,    7.9,    7.7,    9.3,    9.4,    8.9,   10.1,   11.2,    7.9,   13.5,  999.0,   14.2,    5.5,    1.4,    1.5,    3.1,    0.1,  999.0,  999.0,   -0.5,  999.0,  999.0,    0.7,    0.6,  999.0,  999.0,  999.0,  999.0,  999.0,    0.5
2005/09/17 13:40,    5.7,    5.4,    6.3,    6.8,    7.3,    7.6,    8.2,    7.0,   10.0,   10.4,   12.0,   12.8,    9.5,    2.5,    1.5,    0.6,    0.9,    0.2,    0.9,    1.5,    0.5,  999.0,    0.3,    1.0,  999.0,  999.0,  999.0,  999.0,  999.0,    0.2
2005/09/17 13:50,    5.3,    4.9,    6.1,    6.3,    7.3,    7.6,   10.0,   11.1,   13.0,   13.2,  999.0,  999.0,   10.3,    3.4,    4.9,    5.6,    0.6,    0.2,  999.0,  999.0,    0.1,    0.1,    0.2,    1.1,   -0.0,  999.0,  999.0,  999.0,  999.0,  999.0
2005/09/17 14:00,    5.7,    6.7,    6.8,    6.4,    5.6,    9.1,   12.0,   10.5,   13.7,  999.0,  999.0,  999.0,    7.6,    2.5,    4.3,    9.2,   -0.1,    0.3,   -0.6,  999.0,    0.3,    0.5,    1.2,  999.0,  999.0,  999.0,  999.0,  999.0,  999.0,   -0.7
2005/09/17 14:10,    6.9,    7.8,    7.1,    7.7,    8.5,   11.5,   10.9,   10.9,   14.5,   13.7,  999.0,  999.0,    3.1,    3.1,    1.5,    2.4,   -0.3,    1.4,   -0.1,    0.3,   -0.2,    1.5,   -0.0,    0.8,  999.0,  999.0,  999.0,  999.0,  999.0,  999.0
2005/09/17 14:20,    5.0,    6.1,    6.7,    7.0,    8.8,    7.5,    8.4,   10.7,    9.1,    9.3,    8.1,    9.7,    1.7,    1.4,    1.9,    1.4,    2.3,    1.7,    1.2,   -0.0,    0.1,    1.3,    0.7,  999.0,  999.0,  999.0,  999.0,  999.0,  999.0,   -0.7
2005/09/17 14:30,    5.1,    4.3,    6.4,    6.3,   10.6,   11.1,    9.9,   10.4,    1.4,   12.5,   10.4,    9.1,   10.2,    5.8,   -0.3,  999.0,  999.0,  999.0,    1.6,    0.3,    0.8,    1.3,   -2.3,   -0.2,  999.0,  999.0,  999.0,  999.0,  999.0,  999.0
2005/09/17 14:40,    4.2,    6.2,    5.9,    5.8,    6.4,    6.5,    5.8,    5.5,   10.1,    4.7,  999.0,  999.0,  999.0,    0.4,    0.4,  999.0,    1.4,  999.0,   -0.3,    0.1,    0.6,    0.2,    0.0,    0.0,    0.3,  999.0,  999.0,  999.0,   -1.2,  999.0
2005/09/17 14:50,    5.0,    5.3,    7.0,    6.3,    8.4,    8.8,    8.7,    9.2,   10.3,   11.4,  999.0,  999.0,    0.6,    0.6,    0.7,    0.9,   -0.0,  999.0,    0.2,    0.1,    0.4,    0.2,    0.5,  999.0,  999.0,  999.0,  999.0,  999.0,  999.0,    0.3
2005/09/17 15:00,    5.6,    6.0,    7.0,    7.2,    7.6,    7.2,    8.6,    9.0,  999.0,   11.6,  999.0,  999.0,    0.6,    1.0,    0.3,  999.0,    0.5,    1.5,  999.0,  999.0,    0.2,    0.6,   -0.5,    1.2,  999.0,  999.0,  999.0,  999.0,    0.1,   -0.5
2005/09/17 15:10,    6.7,    6.6,    8.0,    8.3,    9.1,    7.6,    7.7,  999.0,  999.0,   11.6,  999.0,  999.0,    1.0,    0.4,    0.9,   -0.7,    1.2,    0.0,    0.1,   -0.4,    0.5,    1.1,   -0.4,    0.6,  999.0,  999.0,  999.0,  999.0,  999.0,  999.0
2005/09/17 15:20,    5.9,    5.1,    6.9,    8.0,    9.1,    8.1,    8.9,    9.2,   10.6,    8.3,  999.0,    0.2,    0.2,    0.1,    0.2,    0.8,    1.3,   -0.3,   -0.0,    0.4,    0.9,  999.0,    1.3,    0.1,  999.0,  999.0,  999.0,  999.0,    0.0,    0.2
2005/09/17 15:30,    6.2,    8.0,    7.5,    7.8,    8.9,    8.3,    7.5,    9.6,    9.0,  999.0,  999.0,    0.6,    0.6,   -0.2,   -0.0,  999.0,   -0.3,  999.0,   -0.5,  999.0,   -0.3,    0.8,   -2.0,   -0.7,  999.0,  999.0,  999.0,  999.0,  999.0,    0.1
2005/09/17 15:40,    5.5,    6.6,    5.8,    7.2,    8.2,    8.9,    6.2,    8.1,  999.0,   10.4,  999.0,   -0.4,   -0.8,   -0.2,    0.1,   -1.3,    1.5,    0.4,  999.0,   -0.5,   -0.2,    2.1,   -2.3,   -0.3,  999.0,  999.0,  999.0,  999.0,   -0.7,  999.0
2005/09/17 15:50,    4.7,    6.1,    5.7,    7.0,  999.0,    7.0,    9.4,    7.8,    7.6,  999.0,   12.7,   -0.1,    0.8,    1.9,   -0.5,    1.2,    1.0,  999.0,    1.5,    0.7,    0.2,    0.2,   -0.3,   -0.1,  999.0,  999.0,  999.0,  999.0,   -0.8,    0.3
2005/09/17 16:00,    6.9,    7.9,    8.5,    8.6,  999.0,    8.6,    8.1,    8.2,  999.0,    9.8,  999.0,   -0.2,   -0.1,   -0.5,   -0.5,  999.0,    0.4,  999.0,    0.0,    0.2,   -0.3,  999.0,   -2.3,    0.1,  999.0,  999.0,  999.0,  999.0,   -0.9,  999.0
2005/09/17 16:10,    7.8,    7.6,    8.0,    8.3,    9.0,    8.5,    8.9,    6.8,  999.0,   10.3,  999.0,    0.1,    0.8,   -1.4,   -0.2,   -0.5,    0.2,  999.0,  999.0,    0.2,   -0.3,   -0.0,    0.5,    0.1,  999.0,  999.0,  999.0,  999.0,  999.0,  999.0
2005/09/17 16:20,    6.7,    6.5,    7.3,    7.4,  999.0,    8.2,    8.9,  999.0,   11.4,  999.0,  999.0,   -0.3,    0.3,   -0.2,    0.2,  999.0,    0.5,    0.6,    1.2,    1.0,    0.6,    1.2,   -0.0,   -0.5,  999.0,  999.0,  999.0,  999.0,  999.0,  999.0
2005/09/17 16:30,    6.8,    5.6,    6.0,    7.2,    8.3,    9.8,    8.7,    9.1,    9.3,   10.6,   11.2,    1.1,    0.1,   -0.4,    0.5,  999.0,  999.0,   -0.4,   -0.4,    2.1,    1.2,    0.1,    0.5,    0.3,  999.0,  999.0,  999.0,  999.0,    0.7,    0.4
2005/09/17 16:40,    7.3,    7.4,    8.4,    7.7,    7.0,    8.6,    8.9,    9.2,   11.2,   12.0,  999.0,    1.0,    0.2,   -0.1,   -1.3,   -0.3,   -0.4,   -0.0,   -0.3,    2.0,    1.2,    1.3,  999.0,   -0.1,  999.0,  999.0,  999.0,  999.0,  999.0,   -0.6
2005/09/17 16:50,    5.4,    5.9,    6.6,    7.3,    9.4,    8.8,    9.5,   10.1,   10.9,   11.0,  999.0,  999.0,  999.0,    2.1,    0.3,   -0.9,    0.1,    1.6,  999.0,   -0.5,    0.7,    0.0,    0.9,   -0.1,  999.0,  999.0,  999.0,  999.0,  999.0,  999.0
2005/09/17 17:00,    6.2,    6.7,    7.6,    7.7,    8.3,    9.7,  999.0,  999.0,  999.0,   11.5,  999.0,   -1.9,   -0.2,    1.1,    0.6,  999.0,  999.0,  999.0,  999.0,  999.0,  999.0,  999.0,  999.0,    0.3,  999.0,  999.0,  999.0,  999.0,   -0.0,  999.0
2005/09/17 17:10,    5.5,    6.6,    8.0,    8.6,    7.6,   10.1,    9.6,   10.4,   12.5,  999.0,  999.0,  999.0,   -0.4,    0.4,   -0.7,    0.5,    0.8,    0.7,    0.3,  999.0,  999.0,  999.0,    1.8,   -1.0,  999.0,  999.0,  999.0,  999.0,  999.0,  999.0
2005/09/17 17:20,    6.6,    6.0,    6.5,    7.0,    8.1,    8.7,    8.2,   11.7,  999.0,   13.9,  999.0,  999.0,    0.8,  999.0,   -1.3,  999.0,   -0.7,    0.5,    0.1,  999.0,  999.0,   -0.9,   -1.0,    0.2,  999.0,  999.0,  999.0,  999.0,  999.0,  999.0
2005/09/17 17:30,    6.2,    7.3,    7.9,    7.3,  999.0,   11.5,   10.8,   11.4,  999.0,  999.0,  999.0,  999.0,  999.0,   -1.2,    1.4,  999.0,   -0.2,   -1.0,  999.0,  999.0,  999.0,  999.0,  999.0,  999.0,  999.0,  999.0,  999.0,  999.0,  999.0,  999.0
2005/09/17 17:40,    5.3,    6.1,    5.3,  999.0,  999.0,    6.5,   10.3,   11.4,   11.4,  999.0,  999.0,    0.4,   -0.0,   -0.1,    0.1,    0.5,    0.8,    0.2,    2.5,    0.2,   -0.4,   -0.2,   -0.4,    0.7,   -0.1,  999.0,  999.0,  999.0,  999.0,  999.0
2005/09/17 17:50,    4.6,    6.0,    5.2,    5.7,  999.0,  999.0,  999.0,  999.0,  999.0,  999.0,  999.0,    0.2,   -0.5,   -0.5,   -0.1,   -0.4,   -0.8,    0.2,   -0.4,   -0.4,    0.0,    0.5,   -0.4,    0.2,  999.0,  999.0,  999.0,  999.0,   -0.0,    1.1
2005/09/17 18:00,    4.2,    5.2,    8.5,    7.6,    8.1,  999.0,  999.0,  999.0,  999.0,  999.0,  999.0,   -0.4,    0.3,    0.3,    0.0,    0.6,    0.7,   -0.4,   -0.7,    0.5,   -0.9,  999.0,   -0.1,    0.8,   -0.5,  999.0,  999.0,  999.0,    0.0,  999.0
2005/09/17 18:10,    4.2,    4.8,    7.4,    7.6,  999.0,  999.0,  999.0,  999.0,  999.0,  999.0,  999.0,    1.3,    0.6,   -0.3,    0.3,    0.1,    0.5,    0.3,   -0.4,   -0.5,   -0.4,    0.5,    0.0,    0.1,    1.0,  999.0,  999.0,  999.0,   -0.2,  999.0
2005/09/17 18:20,    2.0,    3.9,    8.4,  999.0,  999.0,  999.0,  999.0,  999.0,  999.0,  999.0,  999.0,    0.2,    1.0,    0.6,   -0.1,    0.3,    0.5,    0.0,   -0.1,    0.0,   -0.6,    0.3,    0.1,    0.2,  999.0,  999.0,  999.0,  999.0,  999.0,  999.0
2005/09/17 18:30,  999.0,    4.1,    8.8,    6.5,  999.0,  999.0,  999.0,  999.0,  999.0,  999.0,  999.0,  999.0,    0.1,    0.6,    0.1,  999.0,    0.5,    0.2,    0.1,   -1.3,    0.0,    1.3,    0.2,    0.5,    0.0,  999.0,  999.0,  999.0,  999.0,  999.0
2005/09/17 18:40,    1.1,    5.6,    6.5,    6.4,   12.4,  999.0,  999.0,    2.3,  999.0,  999.0,  999.0,    0.5,    0.0,   -0.5,    0.0,    0.2,   -0.3,    0.2,   -0.1,    0.4,   -0.4,   -0.6,   -0.5,   -0.2,  999.0,  999.0,   -0.0,  999.0,  999.0,   -0.6
2005/09/17 18:50,    3.9,    1.2,    3.5,  999.0,    4.3,   -0.1,    3.6,    7.1,    4.2,  999.0,    3.9,    1.5,   -0.2,   -0.6,   -0.0,   -1.7,   -0.0,   -0.1,   -0.3,   -0.7,    0.2,   -0.4,    0.7,    0.2,   -0.2,  999.0,  999.0,  999.0,    0.2,  999.0
2005/09/17 19:00,  999.0,   -4.5,    0.7,    6.3,  999.0,    3.0,    0.3,  999.0,  999.0,  999.0,  999.0,    0.3,    0.0,    0.3,   -0.3,   -0.6,    0.9,    0.6,    0.7,   -0.1,  999.0,   -0.0,    0.6,   -0.6,    0.0,  999.0,  999.0,  999.0,   -1.2,   -0.5
2005/09/17 19:10,  999.0,    3.8,  999.0,    2.0,  999.0,  999.0,    6.1,    6.2,  999.0,  999.0,  999.0,  999.0,    0.6,    0.5,    0.9,   -0.2,    0.5,    0.6,   -0.0,    0.6,    0.1,   -0.4,    0.4,    0.3,    0.0,  999.0,  999.0,  999.0,  999.0,    0.6
2005/09/17 19:20,    2.1,    5.4,    5.8,    3.3,    0.1,    2.0,   -1.0,    7.0,    7.5,  999.0,  999.0,   -0.5,    0.2,    0.5,   -0.0,    0.8,   -0.4,    0.2,    0.4,    0.1,    1.2,  999.0,    0.3,   -0.6,  999.0,  999.0,  999.0,  999.0,    0.4,   -0.9
2005/09/17 19:30,   -1.9,   -0.6,   -1.3,  999.0,  999.0,  999.0,    1.5,  999.0,  999.0,  999.0,  999.0,    1.3,    0.5,    0.7,    0.4,    0.2,    0.4,   -0.1,    0.8,  999.0,    1.0,    0.8,   -0.0,   -0.1,    1.3,  999.0,  999.0,  999.0,   -0.4,  999.0
2005/09/17 19:40,  999.0,   -0.4,   -1.1,    2.6,  999.0,   -0.8,  999.0,  999.0,  999.0,  999.0,  999.0,    1.0,    1.4,    0.2,   -0.0,    0.3,    0.9,    0.8,    0.6,   -1.0,  999.0,    0.2,    2.1,    0.4,  999.0,  999.0,  999.0,  999.0,   -0.2,    0.3
2005/09/17 19:50,    3.7,  999.0,    6.1,  999.0,   -0.8,  999.0,  999.0,   -1.6,  999.0,  999.0,  999.0,    3.7,    0.7,    0.2,   -0.1,   -0.1,   -0.0,    0.2,    0.0,   -1.0,   -0.2,  999.0,    0.7,   -0.1,  999.0,  999.0,  999.0,  999.0,  999.0,  999.0
2005/09/17 20:00,  999.0,  999.0,  999.0,  999.0,  999.0,  999.0,  999.0,  999.0,  999.0,  999.0,  999.0,    2.0,    2.6,    0.3,   -0.3,  999.0,  999.0,    0.1,   -0.3,  999.0,  999.0,    0.0,    1.1,    0.6,    1.4,  999.0,  999.0,  999.0,  999.0,  999.0
2005/09/17 20:10,  999.0,  999.0,    1.5,  999.0,    0.8,  999.0,  999.0,  999.0,    0.3,  999.0,  999.0,    1.2,    0.9,    0.3,    0.3,    0.3,    0.0,    0.5,   -0.2,  999.0,   -0.3,   -0.9,   -0.2,   -0.4,  999.0,  999.0,  999.0,  999.0,    0.0,   -0.5
2005/09/17 20:20,  999.0,  999.0,   -3.7,  999.0,  999.0,    5.4,   -0.8,  999.0,  999.0,  999.0,  999.0,    1.4,    0.4,    0.4,    0.2,    0.3,    2.0,   -0.8,   -0.2,   -0.9,    0.6,    0.3,    0.1,   -0.2,  999.0,  999.0,  999.0,  999.0,   -0.5,    0.2
2005/09/17 20:30,   -0.4,  999.0,  999.0,  999.0,  999.0,  999.0,  999.0,  999.0,  999.0,  999.0,  999.0,  999.0,    0.3,   -0.0,   -0.3,    0.3,    0.8,   -0.0,    0.0,    0.2,  999.0,  999.0,   -0.4,   -0.0,    0.2,  999.0,   -1.0,  999.0,  999.0,  999.0
2005/09/17 20:40,  999.0,  999.0,  999.0,  999.0,  999.0,  999.0,    3.4,  999.0,  999.0,  999.0,  999.0,    0.3,   -0.6,   -0.0,    0.2,    0.2,   -0.6,   -0.4,   -0.2,  999.0,   -1.0,   -0.4,   -0.1,    0.9,  999.0,    0.9,   -0.5,  999.0,    0.1,    0.5
2005/09/17 20:50,    0.4,    0.7,    0.7,  999.0,  999.0,  999.0,  999.0,  999.0,  999.0,  999.0,  999.0,    1.2,    0.1,    0.3,    0.0,   -1.7,    0.7,   -0.2,    0.1,   -0.5,   -0.3,  999.0,   -0.2,    0.3,    0.8,  999.0,  999.0,  999.0,  999.0,   -0.3
2005/09/17 21:00,  999.0,  999.0,   -1.0,  999.0,  999.0,  999.0,  999.0,  999.0,  999.0,  999.0,   -0.2,    1.0,   -0.5,    0.3,    0.5,  999.0,    0.1,    0.8,   -0.3,   -0.7,    1.7,    1.1,   -0.0,    0.1,  999.0,   -0.2,  999.0,  999.0,   -0.0,  999.0
2005/09/17 21:10,    0.4,    2.0,    4.3,  999.0,  999.0,  999.0,  999.0,  999.0,    7.7,  999.0,  999.0,    0.5,   -0.2,    0.2,    0.2,   -0.6,    0.6,  999.0,   -0.5,   -0.1,  999.0,   -0.0,   -0.6,    1.0,   -1.0,  999.0,    0.7,  999.0,   -0.7,  999.0
2005/09/17 21:20,  999.0,    3.4,   -5.5,  999.0,  999.0,    4.7,  999.0,    4.4,  999.0,    6.0,  999.0,  999.0,    0.2,   -0.0,   -0.6,  999.0,   -1.2,   -1.3,    0.7,   -0.2,   -0.2,    0.5,   -0.2,    0.9,  999.0,  999.0,  999.0,  999.0,  999.0,   -0.6
2005/09/17 21:30,  999.0,  999.0,    3.1,  999.0,  999.0,  999.0,  999.0,  999.0,  999.0,  999.0,  999.0,  999.0,   -1.9,   -1.3,    1.5,  999.0,    0.4,   -0.9,  999.0,    0.7,    1.5,    0.4,  999.0,    0.6,  999.0,  999.0,  999.0,  999.0,  999.0,   -0.4
2005/09/17 21:40,  999.0,    4.8,  999.0,  999.0,  999.0,  999.0,  999.0,   -0.8,  999.0,  999.0,  999.0,  999.0,    2.1,    0.3,   -0.1,    1.3,   -0.2,    1.3,    0.1,    0.1,  999.0,    0.8,    0.4,   -0.2,    0.3,  999.0,  999.0,  999.0,  999.0,    0.4
2005/09/17 21:50,    3.5,    3.6,    5.3,    3.5,  999.0,  999.0,    7.6,  999.0,  999.0,    3.0,  999.0,    0.3,    0.9,    4.0,    0.7,  999.0,  999.0,   -0.1,   -1.7,  999.0,    1.1,   -0.4,  999.0,  999.0,  999.0,  999.0,  999.0,  999.0,  999.0,  999.0
2005/09/17 22:00,  999.0,  999.0,  999.0,    7.5,  999.0,  999.0,  999.0,  999.0,  999.0,  999.0,  999.0,  999.0,    4.4,    0.2,   -0.6,    1.3,  999.0,    0.1,   -0.4,  999.0,    2.3,  999.0,    0.0,  999.0,  999.0,  999.0,  999.0,  999.0,  999.0,    0.6
2005/09/17 22:10,  999.0,  999.0,   -3.3,   -1.2,  999.0,  999.0,  999.0,  999.0,  999.0,    4.8,    6.6,    1.3,  999.0,    1.4,   -0.3,    0.0,  999.0,  999.0,   -0.3,   -0.0,  999.0,   -0.1,  999.0,  999.0,  999.0,  999.0,  999.0,  999.0,  999.0,  999.0
2005/09/17 22:20,  999.0,    9.4,    7.6,  999.0,  999.0,   11.7,    9.0,  999.0,  999.0,  999.0,  999.0,    2.3,    1.0,   -0.7,   -0.2,    1.1,    1.5,  999.0,  999.0,    0.4,  999.0,    0.1,    0.6,  999.0,  999.0,  999.0,  999.0,  999.0,    0.9,   -0.6
2005/09/17 22:30,  999.0,  999.0,    7.2,  999.0,    6.2,   11.8,  999.0,  999.0,    5.2,    5.7,   11.2,    2.4,    2.2,   -0.4,    0.1,    2.7,  999.0,    0.1,    0.1,    0.1,  999.0,  999.0,   -0.6,   -0.5,  999.0,  999.0,  999.0,  999.0,  999.0,  999.0
2005/09/17 22:40,  999.0,  999.0,  999.0,    7.0,    5.2,  999.0,  999.0,  999.0,    8.4,    5.2,    7.8,    1.1,    0.3,    0.0,    0.1,  999.0,  999.0,   -0.6,  999.0,    0.5,    1.6,  999.0,   -0.3,    0.9,  999.0,  999.0,  999.0,  999.0,  999.0,  999.0
2005/09/17 22:50,  999.0,  999.0,    1.3,    1.6,  999.0,  999.0,  999.0,    6.4,  999.0,  999.0,  999.0,    2.5,    2.1,    0.2,    1.2,  999.0,  999.0,   -0.7,    0.4,  999.0,    2.6,  999.0,    1.0,    0.4,  999.0,  999.0,  999.0,  999.0,  999.0,   -0.1
2005/09/17 23:00,  999.0,    8.6,   10.1,  999.0,  999.0,    8.6,    5.8,    5.4,  999.0,    0.2,  999.0,    0.5,    2.0,    1.3,    1.2,   -0.1,    0.3,   -0.2,    0.1,   -0.1,  999.0,   -1.2,    0.4,   -0.2,  999.0,  999.0,  999.0,  999.0,   -0.2,  999.0
2005/09/17 23:10,  999.0,    1.0,  999.0,    4.8,  999.0,    8.6,    4.6,  999.0,    7.9,    6.4,  999.0,    4.9,    0.9,    0.7,   -0.2,   -0.4,    0.6,   -1.8,   -1.6,    0.2,    1.6,    0.3,    0.2,  999.0,  999.0,  999.0,  999.0,  999.0,    0.5,    0.1
2005/09/17 23:20,  999.0,    2.2,    6.8,    7.8,  999.0,    8.4,    9.1,    4.3,    6.3,    9.7,  999.0,  999.0,    0.3,    1.2,   -0.3,   -0.2,   -0.7,    0.8,   -0.2,    0.1,    2.4,   -0.4,    1.2,    0.2,  999.0,  999.0,  999.0,  999.0,   -0.2,    0.0
2005/09/17 23:30,    4.3,    4.4,    5.8,    2.3,    6.4,    8.6,    7.5,    7.1,    6.0,    7.7,  999.0,    3.9,    0.4,    2.2,    0.2,  999.0,    2.7,    0.5,    0.1,    1.5,    0.2,   -0.6,   -0.4,   -0.2,  999.0,  999.0,  999.0,  999.0,   -0.2,  999.0
2005/09/17 23:40,    5.4,    5.3,    6.7,    5.3,   11.0,    7.0,    6.9,    4.8,    6.7,    7.7,  999.0,    0.7,    0.9,    0.6,   -0.7,    0.3,  999.0,    0.0,   -0.9,  999.0,    0.7,  999.0,    0.6,  999.0,  999.0,  999.0,  999.0,  999.0,    1.3,   -0.1
2005/09/17 23:50,  999.0,    5.4,  999.0,    5.2,    8.2,    7.6,    8.2,  999.0,    7.7,    5.6,  999.0,    0.6,    1.8,    1.3,   -0.1,   -1.4,   -0.1,   -0.9,   -0.8,    0.5,  999.0,  999.0,    0.0,   -2.4,  999.0,  999.0,  999.0,  999.0,   -0.0,    0.3
